Time,TemperatureF,DewpointF,PressureIn,WindDirection,WindDirectionDegrees,WindSpeedMPH,WindSpeedGustMPH,Humidity,HourlyPrecipIn,Conditions,Clouds,dailyrainin,SoftwareType,DateUTC
2013-06-12 00:03:00,73.0,65.0,-100.00,SE,140,0.0,1.0,78,-99.99,,,-99.99,,2013-06-12 04:03:00,
2013-06-12 00:13:00,73.0,66.0,-100.00,South,175,0.0,1.0,79,-99.99,,,-99.99,,2013-06-12 04:13:00,
2013-06-12 00:23:00,72.0,66.0,-100.00,South,180,1.0,2.0,80,-99.99,,,-99.99,,2013-06-12 04:23:00,
2013-06-12 00:33:00,72.0,66.0,-100.00,South,180,1.0,3.0,81,-99.99,,,-99.99,,2013-06-12 04:33:00,
2013-06-12 00:42:00,72.0,66.0,-100.00,SSE,165,0.0,2.0,82,-99.99,,,-99.99,,2013-06-12 04:42:00,
2013-06-12 00:52:00,72.0,67.0,-100.00,South,185,2.0,3.0,83,-99.99,,,-99.99,,2013-06-12 04:52:00,
2013-06-12 01:03:00,72.0,66.0,-100.00,SSW,205,1.0,4.0,83,-99.99,,,-99.99,,2013-06-12 05:03:00,
2013-06-12 01:12:00,72.0,66.0,-100.00,South,175,2.0,4.0,83,-99.99,,,-99.99,,2013-06-12 05:12:00,
2013-06-12 01:22:00,72.0,67.0,-100.00,South,180,1.0,5.0,83,-99.99,,,-99.99,,2013-06-12 05:22:00,
2013-06-12 01:32:00,72.0,67.0,-100.00,SSE,160,1.0,3.0,83,-99.99,,,-99.99,,2013-06-12 05:32:00,
2013-06-12 01:42:00,72.0,66.0,-100.00,SSE,160,1.0,4.0,83,-99.99,,,-99.99,,2013-06-12 05:42:00,
2013-06-12 01:52:00,71.0,66.0,-100.00,South,175,1.0,3.0,83,-99.99,,,-99.99,,2013-06-12 05:52:00,
2013-06-12 02:02:00,71.0,66.0,-100.00,South,185,0.0,1.0,85,-99.99,,,-99.99,,2013-06-12 06:02:00,
2013-06-12 02:12:00,71.0,66.0,-100.00,South,175,1.0,3.0,85,-99.99,,,-99.99,,2013-06-12 06:12:00,
2013-06-12 02:22:00,71.0,66.0,-100.00,SSE,165,1.0,4.0,85,-99.99,,,-99.99,,2013-06-12 06:22:00,
2013-06-12 02:32:00,70.0,66.0,-100.00,SSE,165,0.0,3.0,86,-99.99,,,-99.99,,2013-06-12 06:32:00,
2013-06-12 02:42:00,70.0,66.0,-100.00,South,185,1.0,4.0,87,-99.99,,,-99.99,,2013-06-12 06:42:00,
2013-06-12 02:52:00,70.0,66.0,-100.00,SSE,165,1.0,4.0,87,-99.99,,,-99.99,,2013-06-12 06:52:00,
2013-06-12 03:02:00,70.0,66.0,-100.00,SSE,160,1.0,4.0,89,-99.99,,,-99.99,,2013-06-12 07:02:00,
2013-06-12 03:12:00,69.0,66.0,-100.00,SSE,165,1.0,4.0,89,-99.99,,,-99.99,,2013-06-12 07:12:00,
2013-06-12 03:22:00,69.0,66.0,-100.00,South,180,2.0,4.0,89,-99.99,,,-99.99,,2013-06-12 07:22:00,
2013-06-12 03:33:00,69.0,67.0,-100.00,SSW,200,2.0,4.0,90,-99.99,,,-99.99,,2013-06-12 07:33:00,
2013-06-12 03:43:00,70.0,67.0,-100.00,SSW,210,2.0,6.0,90,-99.99,,,-99.99,,2013-06-12 07:43:00,
2013-06-12 03:53:00,70.0,67.0,-100.00,South,175,2.0,4.0,90,-99.99,,,-99.99,,2013-06-12 07:53:00,
2013-06-12 04:02:00,70.0,67.0,-100.00,WSW,255,1.0,4.0,91,-99.99,,,-99.99,,2013-06-12 08:02:00,
2013-06-12 04:12:00,71.0,68.0,-100.00,SSW,210,5.0,9.0,91,-99.99,,,-99.99,,2013-06-12 08:12:00,
2013-06-12 04:22:00,71.0,68.0,-100.00,SSW,210,4.0,8.0,91,-99.99,,,-99.99,,2013-06-12 08:22:00,
2013-06-12 04:33:00,71.0,68.0,-100.00,SSW,210,4.0,8.0,91,-99.99,,,-99.99,,2013-06-12 08:33:00,
2013-06-12 04:43:00,71.0,68.0,-100.00,SW,220,5.0,11.0,91,-99.99,,,-99.99,,2013-06-12 08:43:00,
2013-06-12 04:53:00,70.0,68.0,-100.00,WSW,240,7.0,12.0,92,-99.99,,,-99.99,,2013-06-12 08:53:00,
2013-06-12 05:01:00,70.0,68.0,-100.00,WSW,240,7.0,12.0,92,-99.99,,,-99.99,,2013-06-12 09:01:00,
2013-06-12 05:11:00,69.0,68.0,-100.00,SW,225,7.0,14.0,94,-99.99,,,-99.99,,2013-06-12 09:11:00,
2013-06-12 05:22:00,69.0,68.0,-100.00,WSW,250,4.0,11.0,97,-99.99,,,-99.99,,2013-06-12 09:22:00,
2013-06-12 05:33:00,68.0,67.0,-100.00,WSW,245,5.0,9.0,98,-99.99,,,-99.99,,2013-06-12 09:33:00,
2013-06-12 05:43:00,67.0,67.0,-100.00,WSW,250,6.0,12.0,99,-99.99,,,-99.99,,2013-06-12 09:43:00,
2013-06-12 05:53:00,67.0,67.0,-100.00,WSW,245,2.0,9.0,99,-99.99,,,-99.99,,2013-06-12 09:53:00,
2013-06-12 06:02:00,66.0,66.0,-100.00,West,265,2.0,6.0,99,-99.99,,,-99.99,,2013-06-12 10:02:00,
2013-06-12 06:12:00,66.0,66.0,-100.00,West,265,2.0,6.0,99,-99.99,,,-99.99,,2013-06-12 10:12:00,
2013-06-12 06:23:00,66.0,66.0,-100.00,WSW,240,1.0,5.0,99,-99.99,,,-99.99,,2013-06-12 10:23:00,
2013-06-12 06:33:00,66.0,66.0,-100.00,SSW,205,0.0,4.0,99,-99.99,,,-99.99,,2013-06-12 10:33:00,
2013-06-12 06:43:00,65.0,65.0,-100.00,SW,235,2.0,4.0,99,-99.99,,,-99.99,,2013-06-12 10:43:00,
2013-06-12 06:53:00,65.0,65.0,-100.00,WSW,240,4.0,6.0,99,-99.99,,,-99.99,,2013-06-12 10:53:00,
2013-06-12 07:02:00,65.0,65.0,-100.00,SW,235,4.0,7.0,99,-99.99,,,-99.99,,2013-06-12 11:02:00,
2013-06-12 07:12:00,66.0,66.0,-100.00,East,95,1.0,4.0,99,-99.99,,,-99.99,,2013-06-12 11:12:00,
2013-06-12 07:24:00,66.0,66.0,-100.00,SSE,155,1.0,4.0,99,-99.99,,,-99.99,,2013-06-12 11:24:00,
2013-06-12 07:33:00,66.0,66.0,-100.00,SW,230,1.0,4.0,99,-99.99,,,-99.99,,2013-06-12 11:33:00,
2013-06-12 07:43:00,67.0,67.0,-100.00,ESE,105,1.0,4.0,99,-99.99,,,-99.99,,2013-06-12 11:43:00,
2013-06-12 07:53:00,67.0,67.0,-100.00,WSW,245,0.0,3.0,99,-99.99,,,-99.99,,2013-06-12 11:53:00,
2013-06-12 08:02:00,67.0,67.0,-100.00,WSW,245,0.0,3.0,99,-99.99,,,-99.99,,2013-06-12 12:02:00,
2013-06-12 08:11:00,69.0,69.0,-100.00,SSW,210,1.0,4.0,99,-99.99,,,-99.99,,2013-06-12 12:11:00,
2013-06-12 08:23:00,70.0,69.0,-100.00,SW,225,1.0,4.0,96,-99.99,,,-99.99,,2013-06-12 12:23:00,
2013-06-12 08:33:00,70.0,69.0,-100.00,SW,225,1.0,4.0,96,-99.99,,,-99.99,,2013-06-12 12:33:00,
2013-06-12 08:42:00,71.0,67.0,-100.00,WSW,250,2.0,4.0,85,-99.99,,,-99.99,,2013-06-12 12:42:00,
2013-06-12 08:53:00,70.0,67.0,-100.00,West,260,1.0,6.0,88,-99.99,,,-99.99,,2013-06-12 12:53:00,
2013-06-12 09:01:00,70.0,67.0,-100.00,West,260,1.0,6.0,88,-99.99,,,-99.99,,2013-06-12 13:01:00,
2013-06-12 09:12:00,70.0,67.0,-100.00,West,265,3.0,5.0,88,-99.99,,,-99.99,,2013-06-12 13:12:00,
2013-06-12 09:22:00,71.0,67.0,-100.00,West,265,0.0,4.0,89,-99.99,,,-99.99,,2013-06-12 13:22:00,
2013-06-12 09:33:00,71.0,68.0,-100.00,WSW,255,2.0,4.0,87,-99.99,,,-99.99,,2013-06-12 13:33:00,
2013-06-12 09:43:00,70.0,67.0,-100.00,WSW,245,4.0,7.0,89,-99.99,,,-99.99,,2013-06-12 13:43:00,
2013-06-12 09:53:00,69.0,67.0,-100.00,West,260,5.0,9.0,91,-99.99,,,-99.99,,2013-06-12 13:53:00,
2013-06-12 10:02:00,69.0,67.0,-100.00,West,265,6.0,9.0,93,-99.99,,,-99.99,,2013-06-12 14:02:00,
2013-06-12 10:11:00,69.0,67.0,-100.00,West,265,6.0,9.0,93,-99.99,,,-99.99,,2013-06-12 14:11:00,
2013-06-12 10:24:00,70.0,67.0,-100.00,West,280,2.0,7.0,90,-99.99,,,-99.99,,2013-06-12 14:24:00,
2013-06-12 10:33:00,70.0,67.0,-100.00,WSW,250,4.0,6.0,90,-99.99,,,-99.99,,2013-06-12 14:33:00,
2013-06-12 10:43:00,70.0,67.0,-100.00,West,265,2.0,7.0,90,-99.99,,,-99.99,,2013-06-12 14:43:00,
2013-06-12 10:53:00,70.0,67.0,-100.00,WNW,285,4.0,7.0,91,-99.99,,,-99.99,,2013-06-12 14:53:00,
2013-06-12 11:01:00,70.0,67.0,-100.00,West,275,3.0,9.0,91,-99.99,,,-99.99,,2013-06-12 15:01:00,
2013-06-12 11:12:00,69.0,67.0,-100.00,WNW,300,4.0,8.0,93,-99.99,,,-99.99,,2013-06-12 15:12:00,
2013-06-12 11:23:00,68.0,67.0,-100.00,WSW,250,3.0,9.0,94,-99.99,,,-99.99,,2013-06-12 15:23:00,
2013-06-12 11:33:00,69.0,67.0,-100.00,West,260,6.0,7.0,94,-99.99,,,-99.99,,2013-06-12 15:33:00,
2013-06-12 11:43:00,69.0,67.0,-100.00,WSW,250,3.0,8.0,94,-99.99,,,-99.99,,2013-06-12 15:43:00,
2013-06-12 11:52:00,69.0,68.0,-100.00,West,265,2.0,7.0,95,-99.99,,,-99.99,,2013-06-12 15:52:00,
2013-06-12 12:02:00,69.0,68.0,-100.00,West,265,2.0,7.0,95,-99.99,,,-99.99,,2013-06-12 16:02:00,
2013-06-12 12:12:00,69.0,67.0,-100.00,NNW,340,2.0,5.0,94,-99.99,,,-99.99,,2013-06-12 16:12:00,
2013-06-12 12:22:00,68.0,66.0,-100.00,West,265,1.0,6.0,94,-99.99,,,-99.99,,2013-06-12 16:22:00,
2013-06-12 12:33:00,68.0,66.0,-100.00,North,0,1.0,6.0,94,-99.99,,,-99.99,,2013-06-12 16:33:00,
2013-06-12 12:43:00,68.0,67.0,-100.00,NNE,25,2.0,4.0,94,-99.99,,,-99.99,,2013-06-12 16:43:00,
2013-06-12 12:52:00,70.0,68.0,-100.00,West,275,0.0,2.0,94,-99.99,,,-99.99,,2013-06-12 16:52:00,
2013-06-12 13:01:00,70.0,68.0,-100.00,West,275,0.0,2.0,94,-99.99,,,-99.99,,2013-06-12 17:01:00,
2013-06-12 13:12:00,71.0,67.0,-100.00,WNW,290,1.0,5.0,85,-99.99,,,-99.99,,2013-06-12 17:12:00,
2013-06-12 13:23:00,70.0,66.0,-100.00,NNW,335,2.0,7.0,87,-99.99,,,-99.99,,2013-06-12 17:23:00,
2013-06-12 13:33:00,70.0,66.0,-100.00,NNW,335,2.0,7.0,87,-99.99,,,-99.99,,2013-06-12 17:33:00,
2013-06-12 13:42:00,69.0,65.0,-100.00,North,10,2.0,5.0,87,-99.99,,,-99.99,,2013-06-12 17:42:00,
2013-06-12 13:52:00,69.0,65.0,-100.00,North,0,1.0,4.0,88,-99.99,,,-99.99,,2013-06-12 17:52:00,
2013-06-12 14:02:00,69.0,65.0,-100.00,North,0,1.0,4.0,88,-99.99,,,-99.99,,2013-06-12 18:02:00,
2013-06-12 14:12:00,68.0,65.0,-100.00,NNE,15,3.0,6.0,90,-99.99,,,-99.99,,2013-06-12 18:12:00,
2013-06-12 14:22:00,69.0,67.0,-100.00,ENE,70,6.0,9.0,92,-99.99,,,-99.99,,2013-06-12 18:22:00,
2013-06-12 14:33:00,71.0,67.0,-100.00,ESE,115,2.0,7.0,90,-99.99,,,-99.99,,2013-06-12 18:33:00,
2013-06-12 14:43:00,72.0,67.0,-100.00,NE,55,6.0,9.0,85,-99.99,,,-99.99,,2013-06-12 18:43:00,
2013-06-12 14:53:00,73.0,68.0,-100.00,ENE,70,6.0,9.0,84,-99.99,,,-99.99,,2013-06-12 18:53:00,
2013-06-12 15:01:00,73.0,68.0,-100.00,ENE,70,6.0,9.0,84,-99.99,,,-99.99,,2013-06-12 19:01:00,
2013-06-12 15:11:00,75.0,69.0,-100.00,East,95,1.0,4.0,80,-99.99,,,-99.99,,2013-06-12 19:11:00,
2013-06-12 15:22:00,74.0,67.0,-100.00,South,180,2.0,6.0,78,-99.99,,,-99.99,,2013-06-12 19:22:00,
2013-06-12 15:32:00,74.0,67.0,-100.00,South,180,2.0,6.0,78,-99.99,,,-99.99,,2013-06-12 19:32:00,
2013-06-12 15:42:00,71.0,67.0,-100.00,WSW,255,6.0,9.0,87,-99.99,,,-99.99,,2013-06-12 19:42:00,
2013-06-12 15:52:00,71.0,67.0,-100.00,SSW,200,1.0,8.0,89,-99.99,,,-99.99,,2013-06-12 19:52:00,
2013-06-12 16:01:00,71.0,67.0,-100.00,SSW,200,1.0,8.0,89,-99.99,,,-99.99,,2013-06-12 20:01:00,
2013-06-12 16:11:00,71.0,68.0,-100.00,West,265,1.0,6.0,89,-99.99,,,-99.99,,2013-06-12 20:11:00,
2013-06-12 16:22:00,71.0,68.0,-100.00,North,0,2.0,6.0,89,-99.99,,,-99.99,,2013-06-12 20:22:00,
2013-06-12 16:32:00,69.0,67.0,-100.00,North,0,1.0,6.0,91,-99.99,,,-99.99,,2013-06-12 20:32:00,
2013-06-12 16:54:00,70.0,67.0,-100.00,NW,325,1.0,4.0,92,-99.99,,,-99.99,,2013-06-12 20:54:00,
2013-06-12 17:12:00,69.0,67.0,-100.00,NE,40,3.0,6.0,94,-99.99,,,-99.99,,2013-06-12 21:12:00,
2013-06-12 17:22:00,70.0,69.0,-100.00,ENE,60,1.0,4.0,94,-99.99,,,-99.99,,2013-06-12 21:22:00,
2013-06-12 17:33:00,71.0,68.0,-100.00,ENE,75,5.0,7.0,89,-99.99,,,-99.99,,2013-06-12 21:33:00,
2013-06-12 17:52:00,74.0,69.0,-100.00,SSE,165,1.0,4.0,84,-99.99,,,-99.99,,2013-06-12 21:52:00,
2013-06-12 18:11:00,74.0,69.0,-100.00,NE,55,1.0,6.0,84,-99.99,,,-99.99,,2013-06-12 22:11:00,
2013-06-12 18:22:00,74.0,69.0,-100.00,WNW,285,0.0,2.0,84,-99.99,,,-99.99,,2013-06-12 22:22:00,
2013-06-12 18:32:00,73.0,69.0,-100.00,North,5,1.0,4.0,86,-99.99,,,-99.99,,2013-06-12 22:32:00,
2013-06-12 18:43:00,73.0,69.0,-100.00,NNE,25,2.0,5.0,88,-99.99,,,-99.99,,2013-06-12 22:43:00,
2013-06-12 18:52:00,73.0,69.0,-100.00,North,0,1.0,4.0,89,-99.99,,,-99.99,,2013-06-12 22:52:00,
2013-06-12 19:02:00,71.0,69.0,-100.00,NNE,20,2.0,8.0,91,-99.99,,,-99.99,,2013-06-12 23:02:00,
2013-06-12 19:12:00,71.0,69.0,-100.00,NNE,25,1.0,6.0,93,-99.99,,,-99.99,,2013-06-12 23:12:00,
2013-06-12 19:22:00,71.0,69.0,-100.00,North,350,1.0,6.0,94,-99.99,,,-99.99,,2013-06-12 23:22:00,
2013-06-12 19:32:00,71.0,69.0,-100.00,NNE,25,2.0,7.0,94,-99.99,,,-99.99,,2013-06-12 23:32:00,
2013-06-12 19:42:00,71.0,69.0,-100.00,North,0,1.0,6.0,94,-99.99,,,-99.99,,2013-06-12 23:42:00,
2013-06-12 19:52:00,71.0,69.0,-100.00,NNW,330,0.0,1.0,94,-99.99,,,-99.99,,2013-06-12 23:52:00,
2013-06-12 20:01:00,70.0,69.0,-100.00,NNE,15,2.0,5.0,94,-99.99,,,-99.99,,2013-06-13 00:01:00,
2013-06-12 20:12:00,71.0,69.0,-100.00,NNE,15,2.0,7.0,92,-99.99,,,-99.99,,2013-06-13 00:12:00,
2013-06-12 20:22:00,72.0,69.0,-100.00,ENE,60,4.0,7.0,89,-99.99,,,-99.99,,2013-06-13 00:22:00,
2013-06-12 20:32:00,73.0,69.0,-100.00,NE,45,4.0,7.0,90,-99.99,,,-99.99,,2013-06-13 00:32:00,
2013-06-12 20:42:00,73.0,70.0,-100.00,ENE,70,2.0,7.0,91,-99.99,,,-99.99,,2013-06-13 00:42:00,
2013-06-12 20:52:00,73.0,71.0,-100.00,East,80,3.0,7.0,93,-99.99,,,-99.99,,2013-06-13 00:52:00,
2013-06-12 21:01:00,73.0,71.0,-100.00,ENE,75,4.0,7.0,94,-99.99,,,-99.99,,2013-06-13 01:01:00,
2013-06-12 21:12:00,73.0,71.0,-100.00,NE,35,4.0,7.0,95,-99.99,,,-99.99,,2013-06-13 01:12:00,
2013-06-12 21:22:00,73.0,71.0,-100.00,ENE,70,3.0,7.0,96,-99.99,,,-99.99,,2013-06-13 01:22:00,
2013-06-12 21:32:00,73.0,71.0,-100.00,ENE,70,3.0,7.0,96,-99.99,,,-99.99,,2013-06-13 01:32:00,
2013-06-12 21:43:00,73.0,72.0,-100.00,NE,45,4.0,7.0,96,-99.99,,,-99.99,,2013-06-13 01:43:00,
2013-06-12 21:53:00,73.0,72.0,-100.00,ENE,75,3.0,7.0,97,-99.99,,,-99.99,,2013-06-13 01:53:00,
2013-06-12 22:02:00,73.0,72.0,-100.00,ENE,75,3.0,7.0,97,-99.99,,,-99.99,,2013-06-13 02:02:00,
2013-06-12 22:12:00,73.0,72.0,-100.00,ENE,60,4.0,6.0,97,-99.99,,,-99.99,,2013-06-13 02:12:00,
2013-06-12 22:22:00,73.0,72.0,-100.00,ENE,75,4.0,6.0,97,-99.99,,,-99.99,,2013-06-13 02:22:00,
2013-06-12 22:33:00,73.0,73.0,-100.00,East,95,2.0,6.0,97,-99.99,,,-99.99,,2013-06-13 02:33:00,
2013-06-12 22:43:00,73.0,73.0,-100.00,East,95,2.0,6.0,97,-99.99,,,-99.99,,2013-06-13 02:43:00,
2013-06-12 22:52:00,74.0,72.0,-100.00,East,85,6.0,10.0,93,-99.99,,,-99.99,,2013-06-13 02:52:00,
2013-06-12 23:02:00,73.0,71.0,-100.00,WSW,240,4.0,12.0,91,-99.99,,,-99.99,,2013-06-13 03:02:00,
2013-06-12 23:12:00,73.0,71.0,-100.00,WSW,240,4.0,12.0,91,-99.99,,,-99.99,,2013-06-13 03:12:00,
2013-06-12 23:22:00,73.0,71.0,-100.00,SE,135,4.0,10.0,93,-99.99,,,-99.99,,2013-06-13 03:22:00,
2013-06-12 23:33:00,73.0,71.0,-100.00,North,0,1.0,4.0,93,-99.99,,,-99.99,,2013-06-13 03:33:00,
2013-06-12 23:43:00,74.0,72.0,-100.00,ENE,60,7.0,13.0,94,-99.99,,,-99.99,,2013-06-13 03:43:00,
2013-06-12 23:52:00,74.0,72.0,-100.00,ENE,60,9.0,15.0,94,-99.99,,,-99.99,,2013-06-13 03:52:00,